Location: Newark
(49.8969°N, 3.3422°E)
Time: 14:40:00
(UTC+00:00)

Vanguard 1 Rocket - Pass Details

Date: 25 January 2020
Orbit: 650 x 4226 km, 34.3° (Epoch: 28 February)

Event Time Altitude Azimuth Distance (km) Brightness Sun altitude
Rises 12:14:18 0° 254° (WSW) 4,788 11.3 21.0°
Reaches altitude 10° 12:17:05 10° 247° (WSW) 4,162 11.2 21.0°
Maximum altitude 12:28:10 43° 181° (S) 3,485 11.9 20.8°
Drops below altitude 10° 12:47:29 10° 121° (ESE) 7,032 12.2 20.3°
Sets 12:54:05 0° 116° (ESE) 8,334 12.4 20.0°
